DW7831 Weather Reports


Display with metric or nautical units.
time (UTC)temp
F
wind
direction
speed
MPH
gust
MPH
rain 1hr
in
rain 24hr
in
rain mn
in
humidity
%
barometer
mb
20210731183039 66 292 3.0 0.0 0.00 0.00 0.00 50 1015.5
20210731181514 66 5 3.0 0.0 0.00 0.00 0.00 52 1015.5
20210731180011 64 252 3.0 0.0 0.00 0.00 0.00 53 1015.4
20210731174516 64 318 2.0 0.0 0.00 0.00 0.00 52 1015.5
20210731173006 64 288 4.0 0.0 0.00 0.00 0.00 52 1015.7
20210731171506 63 279 2.0 0.0 0.00 0.00 0.00 52 1015.8
20210731170009 64 339 3.0 0.0 0.00 0.00 0.00 52 1016.0
20210731164510 63 258 3.0 0.0 0.00 0.00 0.00 55 1016.0
20210731163101 63 329 3.0 0.0 0.00 0.00 0.00 54 1016.1
20210731161554 63 321 2.0 0.0 0.00 0.00 0.00 54 1016.4
20210731160130 62 32 2.0 0.0 0.00 0.00 0.00 54 1016.5
20210731154531 61 22 2.0 0.0 0.00 0.00 0.00 54 1016.3
20210731153039 61 330 1.0 0.0 0.00 0.00 0.00 57 1016.4
20210731151538 61 15 3.0 0.0 0.00 0.00 0.00 58 1016.4
20210731150124 61 324 2.0 0.0 0.00 0.00 0.00 59 1016.4
20210731144701 60 240 2.0 0.0 0.00 0.00 0.00 58 1016.6
20210731143143 59 309 3.0 0.0 0.00 0.00 0.00 60 1016.6
20210731141653 58 242 3.0 0.0 0.00 0.00 0.00 62 1016.5
20210731140051 57 294 2.0 0.0 0.00 0.00 0.00 64 1016.6
20210731134539 57 290 4.0 0.0 0.00 0.00 0.00 63 1016.4
20210731133100 56 331 2.0 0.0 0.00 0.00 0.00 66 1016.4
20210731131518 56 305 3.0 0.0 0.00 0.00 0.00 67 1016.2
20210731130014 55 319 2.0 0.0 0.00 0.00 0.00 69 1016.2
20210731124508 54 265 2.0 0.0 0.00 0.00 0.00 74 1016.2
20210731123045 53 259 2.0 0.0 0.00 0.00 0.00 77 1016.0
20210731121538 53 237 2.0 0.0 0.00 0.00 0.00 82 1016.0
20210731120105 51 252 1.0 0.0 0.00 0.00 0.00 88 1016.4
20210731114518 50 230 0.0 0.0 0.00 0.00 0.00 92 1016.4
20210731113101 49 230 2.0 0.0 0.00 0.00 0.00 93 1016.2
20210731111520 47 261 0.0 0.0 0.00 0.00 0.00 93 1016.2
20210731110121 45 261 0.0 0.0 0.00 0.00 0.00 92 1016.1
20210731104625 45 261 0.0 0.0 0.00 0.00 0.00 91 1015.9
20210731103042 45 261 0.0 0.0 0.00 0.00 0.00 91 1015.7
20210731101640 45 261 0.0 0.0 0.00 0.00 0.00 91 1015.7
20210731100024 45 261 0.0 0.0 0.00 0.00 0.00 90 1015.7
20210731094522 46 261 0.0 0.0 0.00 0.00 0.00 90 1015.6
20210731093041 47 261 0.0 0.0 0.00 0.00 0.00 90 1015.5
20210731091524 47 261 0.0 0.0 0.00 0.00 0.00 89 1015.4
20210731090026 48 261 0.0 0.0 0.00 0.00 0.00 89 1015.4
20210731084514 49 261 0.0 0.0 0.00 0.00 0.00 89 1015.4
20210731083147 50 261 0.0 0.0 0.00 0.00 0.00 89 1015.3
20210731081617 50 261 0.0 0.0 0.00 0.00 0.00 88 1015.4
20210731080111 50 261 0.0 0.0 0.00 0.00 0.00 89 1015.4
20210731074611 51 261 0.0 0.0 0.00 0.00 0.00 89 1015.3
20210731073144 51 261 0.0 0.0 0.00 0.00 0.00 89 1015.2
20210731071609 51 261 0.0 0.0 0.00 0.00 0.00 90 1015.1
20210731070121 50 257 1.0 0.0 0.00 0.00 0.00 91 1015.2
20210731064548 50 308 0.0 0.0 0.00 0.00 0.00 92 1015.1
20210731063057 50 308 0.0 0.0 0.00 0.00 0.00 92 1015.0
20210731061557 49 309 0.0 0.0 0.00 0.00 0.00 92 1015.0
20210731060026 49 311 1.0 0.0 0.00 0.00 0.00 92 1015.0
20210731054630 48 311 1.0 0.0 0.00 0.00 0.00 92 1015.0
20210731053026 47 314 0.0 0.0 0.00 0.00 0.00 91 1014.8
20210731051538 47 314 0.0 0.0 0.00 0.00 0.00 90 1014.7
20210731044557 48 314 0.0 0.0 0.00 0.00 0.00 89 1014.9
20210731043103 48 314 0.0 0.0 0.00 0.00 0.00 89 1015.1
20210731041614 48 314 0.0 0.0 0.00 0.00 0.00 88 1015.2
20210731040110 49 314 0.0 0.0 0.00 0.00 0.06 87 1015.1
20210731034551 50 314 0.0 0.0 0.00 0.00 0.06 86 1015.2
20210731033031 50 314 0.0 0.0 0.00 0.00 0.06 85 1015.1
20210731031647 51 314 0.0 0.0 0.00 0.00 0.06 84 1015.1
20210731030056 51 314 0.0 0.0 0.00 0.00 0.06 84 1015.1
20210731024525 52 314 0.0 0.0 0.00 0.00 0.06 83 1015.3
20210731023040 52 314 0.0 0.0 0.00 0.00 0.06 83 1015.2
20210731021536 53 314 0.0 0.0 0.00 0.00 0.06 82 1015.4
20210731020026 53 314 0.0 0.0 0.00 0.00 0.06 81 1015.3
20210731014520 54 314 0.0 0.0 0.00 0.00 0.06 80 1015.1
20210731013021 54 314 0.0 0.0 0.00 0.00 0.06 79 1015.1
20210731011645 55 314 0.0 0.0 0.00 0.00 0.06 77 1014.7
20210731010119 55 314 0.0 0.0 0.00 0.00 0.06 76 1014.7
20210731004511 56 314 0.0 0.0 0.00 0.00 0.06 74 1014.5
20210731003137 56 314 2.0 0.0 0.00 0.00 0.06 73 1014.3
20210731001652 57 313 1.0 0.0 0.00 0.00 0.06 71 1013.8
20210731000113 58 302 3.0 0.0 0.00 0.00 0.06 69 1013.5
20210730234718 59 286 3.0 0.0 0.00 0.00 0.06 66 1013.6
20210730233205 60 324 4.0 0.0 0.00 0.00 0.06 64 1013.6
20210730231658 61 351 2.0 0.0 0.00 0.00 0.06 64 1013.0
20210730230052 61 304 4.0 0.0 0.00 0.00 0.06 62 1012.9
20210730224615 63 302 3.0 0.0 0.00 0.00 0.06 60 1012.5
20210730223117 64 242 3.0 0.0 0.00 0.00 0.06 59 1012.4
20210730221553 63 329 4.0 0.0 0.00 0.00 0.06 60 1012.2
20210730220046 63 313 4.0 0.0 0.00 0.00 0.06 59 1012.2
20210730214615 64 310 5.0 0.0 0.00 0.00 0.06 58 1012.1
20210730213033 64 294 7.0 0.0 0.00 0.00 0.06 58 1012.1
20210730211553 64 17 5.0 0.0 0.00 0.00 0.06 55 1011.8
20210730210049 65 345 5.0 0.0 0.00 0.00 0.06 54 1011.7
20210730204524 65 5 6.0 0.0 0.00 0.00 0.06 55 1011.3
20210730203057 66 360 6.0 0.0 0.00 0.00 0.06 54 1011.5
20210730201528 65 217 9.0 0.0 0.00 0.00 0.06 54 1011.2
20210730200032 65 344 7.0 0.0 0.00 0.00 0.06 57 1011.0
20210730194523 66 321 8.0 0.0 0.00 0.00 0.06 58 1011.1
20210730193111 66 281 8.0 0.0 0.00 0.00 0.06 60 1011.0
20210730191510 67 303 6.0 0.0 0.00 0.00 0.06 57 1010.9
20210730190010 67 269 6.0 0.0 0.00 0.00 0.06 59 1011.0
20210730184508 67 231 6.0 0.0 0.00 0.00 0.06 59 1011.0